IRIDIUM 141 (43077 NORAD) Tracking and Keplerian Element Data

This shows tracking and keplerian element data for the satellite.

Feedback or suggestion? Click here.




ElementValue
Catalog43077
NameIRIDIUM 141
Epoch Orbit19588
Epoch Day261.91976054
Epoch Year2021
RAAN325.948
Inclination86.3986
Eccentricity0.0002227
Argument of Perigee87.9022
Mean Anonmoly272.2429
Mean Motion14.34216478
Decay Rate8.2E-07
L11 43077U 17083H 21261.91976054 .00000082 00000-0 22267-4 0 9996
L22 43077 86.3986 325.9480 0002227 87.9022 272.2429 14.34216478195884

Live tracking and technical data element details for IRIDIUM 141 (NORAD 43077). IRIDIUM 141 can be tracked NOW for your location showing map with azimuth and elevation plus other details from your city location.

Track the satellite on the map from your city or location and see movement details for azimuth, elevation, latitude, longitude, range, height, and movement on the map or in text.







IsCatalogInMostPopularTable: catalog: 43077, numindb: 596
Update: records affected: 1



GetName: 43077 IRIDIUM 141

Hit Count: updated at: Sun, 26 Sep 2021 00:25:56 GMT